OpenBCM V1.13 (Linux)

Packet Radio Mailbox

DB0FHN

[JN59NK Nuernberg]

 Login: GUEST





  
LU9DCE > KEP      11.07.19 20:04l 245 Lines 12050 Bytes #999 (0) @ WW
BID : 28417_LU9DCE
Read: DJ6UX DF7EAV GUEST
Subj: TLE 11 07
Path: DB0FHN<DB0BLO<DB0ERF<OK0NAG<OK0NBR<SV1CMG<ON0AR<VE2PKT<N3HYM<LU9DCE
Sent: 190711/1800Z 28417@LU9DCE.TOR.BA.ARG.SOAM LinBPQ6.0.18

            __    _  _  ___  ____   ___  ____    ____  ____  ____
           (  )  / )( \/ _ \(    \ / __)(  __)  (  _ \(  _ \/ ___)
           / (_/\) \/ (\__  )) D (( (__  ) _)    ) _ ( ) _ (\___ \
           \____/\____/(___/(____/ \___)(____)  (____/(____/(____/
               ESTACION DE PACKET RADIO - BUENOS AIRES (GF05OM)
                   BOLETINES INFORMATIVOS PROGRAMADOS (BIP)
                  SLACKWARE LINUX - HELLOCODELINUX@GMAIL.COM

+----------------------------------------------------------------------------+
OSCAR 7
1  7530U 74089B   19191.00909130 -.00000020  00000-0  15481-3 0  9991
2  7530 101.7448 158.4528 0011871 307.8784  97.6042 12.53638886 43195
OSCAR 11 (UoSAT 2)
1 14781U 84021B   19191.49237847  .00000033  00000-0  10204-4 0  9998
2 14781  97.6095 215.1790 0007070 243.5034 116.5455 14.83094428901997
OSCAR 19 (LUSAT)
1 20442U 90005G   19191.80434069 -.00000008  00000-0  13431-4 0  9996
2 20442  98.6492 133.7685 0012963  84.6262 275.6401 14.32928399539545
EYESAT A
1 22825U 93061C   19190.90969964 -.00000017 +00000-0 +11347-4 0  9999
2 22825 098.9037 180.0316 0007442 301.5629 058.4825 14.30061869344718
ITAMSAT
1 22826U 93061D   19190.90642400 -.00000008 +00000-0 +14682-4 0  9998
2 22826 098.8977 180.0170 0007867 288.7347 071.2980 14.30395595344938
RADIO ROSTO
1 23439U 94085A   19190.89050238 -.00000036 +00000-0 +18531-3 0  9993
2 23439 064.8175 081.8447 0146171 109.0650 252.6169 11.27568264010281
JAS 2
1 24278U 96046B   19190.92001374 -.00000032  00000-0  29975-5 0  9997
2 24278  98.5401 341.4530 0350321 184.7956 174.9796 13.53092694130678
TECHSAT 1B
1 25397U 98043D   19191.40658507 -.00000020  00000-0  10321-4 0  9990
2 25397  98.6893 131.2886 0001360  26.5774 333.5474 14.23667498 90964
ISS (ZARYA)
1 25544U 98067A   19191.64362958  .00000242  00000-0  11957-4 0  9999
2 25544  51.6430 244.8938 0007211 126.3371   5.0810 15.50966263178893
PCSAT
1 26931U 01043C   19191.73341121 -.00000046  00000-0  14344-4 0  9993
2 26931  67.0521 306.8015 0007003 277.4650  82.5655 14.30546515928125
SAUDISAT 1C
1 27607U 02058C   19190.89571941 -.00000033  00000-0  16342-4 0  9998
2 27607  64.5555 344.7671 0080641 252.4557 106.7723 14.75557203890164
CUTE-1
1 27844U 03031E   19190.89992822 +.00000026 +00000-0 +31564-4 0  9992
2 27844 098.6831 198.7959 0009276 336.9771 023.0990 14.22184320831260
CUBESAT XI 4
1 27848U 03031J   19190.96848208 +.00000025 +00000-0 +31125-4 0  9994
2 27848 098.6909 199.3681 0009377 348.6456 011.4508 14.21778848831136
MOZHAYETS 4
1 27939U 03042A   19191.80933804  .00000085  00000-0  23900-4 0  9996
2 27939  98.0438 327.1967 0012859   3.5787 356.5511 14.66789839843781
CUBESAT XI 5
1 28895U 05043F   19191.11084378  .00000083  00000-0  24892-4 0  9997
2 28895  97.9620 333.1107 0015374 285.1384  74.8118 14.63673439730618
CUTE-1.7+APD II
1 32785U 08021C   19191.13242380  .00000163  00000-0  23248-4 0  9993
2 32785  97.5494 189.8358 0012836 184.8806 175.2289 14.88318357606871
DELFI C3
1 32789U 08021G   19190.93255408 +.00000856 +00000-0 +61112-4 0  9990
2 32789 097.4630 239.9558 0013623 058.1952 302.0601 15.06989385610065
SEEDS
1 32791U 08021J   19190.98058821  .00000200  00000-0  25670-4 0  9990
2 32791  97.5274 195.6866 0013809 160.5140 199.6610 14.90831527607282
YUBELEINY
1 32953U 08025A   19191.45575612  .00000021  00000-0  75656-4 0  9999
2 32953  82.5017 131.2315 0020434  80.7142 279.6247 12.43090362505016
PRISM (HITOMI)
1 33493U 09002B   19191.52444618  .00000765  00000-0  72476-4 0  9996
2 33493  98.1214 113.3078 0016541 109.2055 251.0957 14.96668228568416
KKS-1 (KISEKI)
1 33499U 09002H   19190.90144776 +.00000093 +00000-0 +21765-4 0  9994
2 33499 098.3493 030.2840 0010091 133.4271 226.7779 14.75446750561921
SWISSCUBE
1 35932U 09051B   19191.10250383  .00000101  00000-0  33788-4 0  9995
2 35932  98.5899 357.7035 0008908  99.3733 260.8472 14.56290680519893
BEESAT
1 35933U 09051C   19190.69194477  .00000075  00000-0  27999-4 0  9997
2 35933  98.5924 359.0488 0007030 110.9506 249.2444 14.56378927519940
ITUPSAT 1
1 35935U 09051E   19191.44916617  .00000062  00000-0  25425-4 0  9999
2 35935  98.6034   0.0651 0009362 107.3908 252.8313 14.55538351519804
XIWANG-1 (HOPE-1)
1 36122U 09072B   19190.71301569 -.00000046 +00000-0 -11086-4 0  9996
2 36122 100.0732 192.1055 0007006 299.4819 060.5595 13.16350124459641
TISAT 1
1 36799U 10035E   19191.42436468  .00000295  00000-0  35859-4 0  9991
2 36799  98.1584 344.2999 0012663  21.3483 338.8259 14.91114490488002
JUGNU
1 37839U 11058B   19191.13743226  .00000306  00000-0  21354-4 0  9992
2 37839  19.9597 204.7296 0018652 203.0243 217.3249 14.12653576400291
SRMSAT
1 37841U 11058D   19190.59749288  .00000305  00000-0  22465-4 0  9991
2 37841  19.9717 265.2142 0012020  66.2313  79.5313 14.10635033399642
M-CUBED/EXP-1 PRIME
1 37855U 11061F   19190.66827106  .00001265  00000-0  70878-4 0  9991
2 37855 101.7128  97.0329 0173684  14.6849 345.9318 15.05459899419935
HORYU 2
1 38340U 12025D   19190.93383224 +.00000111 +00000-0 +24199-4 0  9994
2 38340 098.3274 230.1607 0012650 060.6451 299.6019 14.75726073373885
STRAND 1
1 39090U 13009E   19191.53945808  .00000015  00000-0  20461-4 0  9990
2 39090  98.4868  37.1296 0008301 218.4323 141.6272 14.35089361333528
SOMP
1 39134U 13015E   19190.74063356  .00000785  00000-0  45190-4 0  9997
2 39134  64.8640 312.2414 0031724 300.9791  58.8221 15.20185688343799
BEESAT 3
1 39135U 13015F   19190.76602292  .00000568  00000-0  37975-4 0  9999
2 39135  64.8699 330.7529 0023989 318.1196  41.8094 15.17493337343441
BEESAT 2
1 39136U 13015G   19190.87689830 +.00000596 +00000-0 +39978-4 0  9991
2 39136 064.8710 334.2809 0020233 299.0286 060.8812 15.16922540342992
CUBEBUG 1
1 39153U 13018D   19191.52482993  .00000111  00000-0  21442-4 0  9997
2 39153  97.9794 289.5278 0018194 125.3929 234.8985 14.80572911335045
ZACUBE
1 39417U 13066B   19191.52617920  .00000153  00000-0  25722-4 0  9994
2 39417  97.5617 203.8006 0057966 323.7468  35.9823 14.81122343304271
TRITON 1
1 39427U 13066M   19191.47404678  .00000197  00000-0  38968-4 0  9997
2 39427  97.6771 167.5069 0115382  95.6435 265.7942 14.67848302301530
GOMX 1
1 39430U 13066Q   19191.42774426  .00000110  00000-0  28929-4 0  9998
2 39430  97.7487 146.5506 0150869 185.2324 174.7303 14.59258582299772
HUMSAT D
1 39433U 13066T   19191.13904174  .00000475  00000-0  51652-4 0  9997
2 39433  97.5520 237.7676 0029593 227.0261 132.8477 14.92202671306272
CUBEBUG 2
1 39440U 13066AA  19191.51447495  .00000160  00000-0  29208-4 0  9998
2 39440  97.6021 188.6628 0080704  15.2267 345.1345 14.75860347303194
FUNCUBE 1
1 39444U 13066AE  19191.04204550  .00000177  00000-0  28232-4 0  9997
2 39444  97.5597 205.3102 0056971 319.0296  40.6644 14.81941923303090
UWE-3
1 39446U 13066AG  19190.93972112 +.00000144 +00000-0 +25835-4 0  9992
2 39446 097.5807 195.1680 0069793 352.0788 007.9315 14.78394525301817
SPROUT
1 39770U 14029E   19191.76502167  .00000322  00000-0  41795-4 0  9994
2 39770  97.8845 294.9137 0009757  20.3537 339.8047 14.87355200278110
UNISAT 6
1 40012U 14033C   19190.85578537  .00000102  00000-0  22628-4 0  9993
2 40012  97.7553  56.5529 0059202  30.8695 329.5973 14.73983192271809
DUCHIFAT 1
1 40021U 14033M   19190.75613097 +.00000233 +00000-0 +29611-4 0  9997
2 40021 097.9236 115.4197 0012682 347.6550 012.4355 14.90638049274683
QB50P1
1 40025U 14033R   19190.73470947 +.00000193 +00000-0 +26538-4 0  9994
2 40025 097.9056 110.3854 0012423 357.2946 002.8201 14.88949992273940
CHUBUSAT 1
1 40300U 14070C   19191.28022486  .00000398  00000-0  20336-4 0  9990
2 40300  97.3265 264.9164 0019980 344.0716  56.5093 15.22099995259303
NUDT-PHONESAT
1 40900U 15049B   19191.39651809  .00001313  00000-0  59034-4 0  9997
2 40900  97.4362 200.5175 0014432 106.0487   2.0746 15.22824734210961
ZDPS 2A
1 40901U 15049C   19191.76244821  .00000392  00000-0  22709-4 0  9996
2 40901  97.4592 197.2655 0014907 122.6589 324.2438 15.17739231210582
ZDPS 2B
1 40902U 15049D   19191.53223690  .00000877  00000-0  46952-4 0  9997
2 40902  97.4540 194.5306 0014899 119.9936 357.4050 15.17562292210527
XW-2A
1 40903U 15049E   19191.72323771  .00001352  00000-0  33766-4 0  9998
2 40903  97.3360 234.6103 0015237  69.1217  70.5412 15.41892856213643
KAITUO 1A
1 40904U 15049F   19191.79001446  .00000318  00000-0  20313-4 0  9993
2 40904  97.4665 193.4192 0015908 127.2060 335.4564 15.15371921210341
OBJECT G
1 40905U 15049G   19191.75555694  .00000047  00000-0  61217-5 0  9997
2 40905  97.4703 190.9171 0016874 122.8417 349.2101 15.14296388210212
XW-2C
1 40906U 15049H   19191.76700231  .00000373  00000-0  23027-4 0  9996
2 40906  97.4672 193.4781 0016294 119.4961 236.7548 15.15684414210335
XW-2D
1 40907U 15049J   19191.76176603  .00000189  00000-0  13342-4 0  9991
2 40907  97.4653 193.1516 0015522 116.3401 348.2971 15.15871117210355
LILACSAT 2
1 40908U 15049K   19191.40986921  .00000420  00000-0  26776-4 0  9998
2 40908  97.4785 191.6355 0017156 124.2389 342.5276 15.13808620210097
XW-2F
1 40910U 15049M   19191.51537259  .00000431  00000-0  24912-4 0  9991
2 40910  97.4617 194.9225 0016362 111.4215  49.3721 15.17308745210320
XW-2B
1 40911U 15049N   19191.40030545  .00000589  00000-0  34257-4 0  9993
2 40911  97.4677 193.4485 0015461 118.2269 351.5804 15.15804225210199
KAITUO 1B
1 40912U 15049P   19191.29686657  .00000563  00000-0  29588-4 0  9995
2 40912  97.4493 198.3696 0016582  96.4944 321.4499 15.19622061210596
TIANWANG 1C (TW-1C)
1 40926U 15051B   19191.83447935  .00008481  00000-0  12310-3 0  9998
2 40926  97.1333 237.9821 0006149 294.1201 127.7036 15.56045256213607
